Showing default

FLOCK 4BE 10, 60503

Orbit data source: Space-Track

FLOCK 4BE 10, 60503 is a payload satellite owned by Planet (US) in SSO that was launched on Fri, 16 Aug 2024 UTC via an FALCON 9 launch vehicle from the Air Force Western Test Range (AFWTR). Payload-class satellites include a variety of spacecraft equipped with specific instruments for various scientific and technological missions. These include communications satellites like Starlink; space stations such as the ISS; scientific satellites like the Hubble; Earth observation satellites from companies like Planet Labs, Umbra, and HawkEye 360; GPS; miniature CubeSats for education and research; and military/defense satellites.

Loading next visibility...
Identifier
60503, 2024-149AM
Orbit
SSO
Last TLE update
16 hours ago
Origin
Manufacturer
Planet
Mission
Operational Commercial Imaging
Bus & Motor
CUBESAT 3U, Unknown motor
Mass
5.7 kg wet, 5.7 kg dry
Launch date (UTC)
2024-08-16 (11 months ago)
Launch vehicle
FALCON 9
Launch site
Air Force Western Test Range (AFWTR)
Object type
Payload
Rocket body
Debris
Shape & HBR
Box + 2 Pan, 0.3 m
Radar Cross Section
0.035 m², Medium (>0.1 m² and < 1m²)

Expand to show TLE details & history

TLE from 16 hours ago
0 FLOCK 4BE 10
1 60503U 24149AM  25188.69631735  .00007304  00000-0  26848-3 0  9993
2 60503  97.4107 266.8897 0004979  76.7250 283.4545 15.28186980 49468
Epoch: 2025-07-07T16:42Z
TLE epoch observation values (Epoch: 2025-07-07T16:42:41.819Z)
Latitude
0.00004°
Longitude
90.3135°
Altitude
483.54 km
Speed
7.624 km/s
True Right ascension
17h 47m 33s
True Declination
0° 00' 00"
Sunlit
Object was in full shadow at epoch
Visualization orbit readout
Latitude
-11.24131°
Longitude
92.43589°
Altitude
486.174 km
Speed
7.622 km/s
Apparent Right ascension
14h 50m 27s
Apparent Declination
-52° 18' 55"
Sunlit
Object is in full shadow
Visualization observer readout
Local Sidereal Time
20:28:21
Azimuth
223.341° SW
Elevation
-27.558°
Doppler factor
1
Orbital elements
Apogee altitude
481.601 km
Perigee altitude
474.774 km
Semi-major axis
6,856.324 km
Eccentricity
0.0005
Inclination
97.4107°
RAAN
266.8897°
Arg. of periapsis
76.725°
True anomaly
Unknown
Mean anomaly
283.4545°
Eccentric anomaly
Unknown
Mean motion
3.82302 °/min
Orbital period
94.17 mins
BSTAR
0.00026848
Loading maneuver chart data...
Loading SW <> Apogee altitude chart data...
Loading historical data...
Loading historical data...
Loading historical data...
Loading historical data...
Loading historical data...
Loading historical data...
Loading historical data...

FLOCK 4BE 10 Visibility forecast

Observer location: undefined°, undefined°

Span
Click to sort rows by Start time (UTC) header in descending order
Start Az.
Max El. time (UTC)
Max El. Az.
Max El.
End time (UTC)
End Az.
6 mins2025-07-08 18:24:38.564Z358.544° N2025-07-08 18:27:38.564Z284.685° WNW36.933°2025-07-08 18:30:38.564Z212.071° SW
4 mins2025-07-09 05:00:38.564Z134.006° SE2025-07-09 05:01:38.564Z101.986° ESE35.908°2025-07-09 05:04:38.564Z3.366° NNE
|